Location: Frederiksbj�rg
(56.1334°N, 10.2096°E)
Time: 06:33:19
(UTC+00:00)

Daily predictions for brighter satellites

Satellite Brightness Start Highest point End
(mag) Time Altitude Azimuth Time Altitude Azimuth Time Altitude Azimuth
Cosmos 1867 3.9 17:54:46 10° NW 18:00:13 69° SW 18:05:38 10° SE
Cosmos 1733 Rocket 4.4 17:57:05 10° SW 18:01:22 46° WNW 18:05:39 10° N
Cosmos 1833 Rocket 4.0 17:59:36 10° NNW 18:04:20 26° NNE 18:09:03 10° E
USA 229 DEB 4.0 18:00:10 10° WSW 18:06:49 75° NNW 18:13:58 10° NE
NOSS 3-2 (C) 4.0 17:59:50 10° NW 18:06:52 74° NNE 18:15:00 10° ESE
USA 229 4.0 18:00:16 10° WSW 18:06:55 75° NNW 18:14:03 10° NE
Lacrosse 5 rocket 1.5 18:04:16 10° WSW 18:08:32 72° SSE 18:13:01 10° ENE
Cosmos 2227 Rocket 3.5 18:03:25 10° WSW 18:08:49 44° NW 18:14:14 10° NNE
Resurs 01 Rocket 3.1 18:05:53 10° ESE 18:09:10 20° NE 18:12:27 10° N
CSL-04 Debris 4.4 18:04:51 10° SSE 18:10:14 77° WSW 18:15:41 10° NNW
Cosmos 1689 Rocket 4.0 18:08:26 10° N 18:11:13 35° WNW 18:13:58 10° SW
Meteor 1-21 4.5 18:05:40 10° NNW 18:11:18 76° W 18:16:53 10° S
NOSS 2-3 (C) 4.1 18:07:00 10° WSW 18:11:33 76° NNW 18:17:17 10° NE
MOS 1 Rocket 3.6 18:07:47 10° NNE 18:12:06 41° E 18:16:13 10° SSE
Sich 1 Rocket 3.9 18:09:20 10° SSE 18:13:38 45° E 18:18:00 10° NNE
CSL-04 Rocket 4.1 18:13:18 10° S 18:18:43 71° WSW 18:24:15 10° NNW
NOSS 3-1 (A) 3.7 18:13:08 10° WSW 18:18:57 76° NNW 18:25:58 10° NE
Cosmos 1626 3.9 18:17:03 10° NNE 18:19:28 16° ENE 18:21:30 11° E
SJ 16-02 1.9 18:17:04 10° SW 18:21:25 64° WNW 18:25:48 10° NNE
OBJECT-B 2.0 18:19:21 11° ESE 18:21:58 25° ENE 18:24:42 10° N
NOSS 8 (E) 4.2 18:22:10 10° SW 18:25:11 55° SE 18:28:13 10° ENE
Cosmos 1937 Rocket 3.5 18:20:04 10° SSW 18:25:15 63° ESE 18:30:24 10° NNE
ARIANE 5 R/B 4.2 18:23:29 11° E 18:26:12 18° NE 18:29:13 10° N
Abrixas rocket 3.8 18:28:21 10° SW 18:30:18 17° S 18:31:44 13° SE
Okean 2 Rocket 3.4 18:27:54 10° SSE 18:32:11 45° E 18:36:27 10° NNE
USA 116 3.4 18:29:25 10° NNE 18:32:46 86° WNW 18:36:25 10° SSW
NOSS 2-2 (E) 3.9 18:30:41 10° S 18:33:55 33° SE 18:37:41 10° ENE
Cosmos 1464 Rocket 4.0 18:28:00 10° S 18:33:57 57° E 18:40:00 10° NNE
Okean 1 Rocket 4.4 18:31:12 11° SE 18:34:19 21° E 18:37:39 10° NE
SL-08 RB Rocket 3.7 18:29:51 10° SSE 18:34:26 82° ENE 18:39:01 10° NNW
Cosmos 1092 Rocket 4.3 18:28:45 10° N 18:34:40 45° ENE 18:40:34 10° SE
Meteor 2-5 Rocket 4.2 18:32:38 10° N 18:37:59 42° ENE 18:42:58 12° SE
ATLAS 2AS CENTAUR R/B 4.3 18:36:30 10° SE 18:40:41 15° ESE 18:44:50 10° ENE
Cosmos 1300 Rocket 3.7 18:36:29 10° S 18:40:45 52° E 18:45:06 10° NNE
NOSS 2-2 (D) 3.9 18:39:25 10° S 18:42:36 31° SE 18:46:16 10° ENE
CENTAUR R/B 3.2 18:36:25 10° NW 18:44:08 90° NE 18:51:59 14° SE
Resurs 1-3 3.9 18:41:32 12° SE 18:45:22 47° ENE 18:49:37 10° N
Cosmos 2082 Rocket 3.4 18:41:34 10° NNW 18:46:25 28° NNE 18:50:26 14° E
Cosmos 1975 4.0 18:44:38 10° SSW 18:48:37 49° WNW 18:52:36 10° N
Cosmos 1674 2.8 18:45:07 10° N 18:48:55 55° ENE 18:52:10 14° SSE
Cosmos 1805 4.3 18:49:00 18° SE 18:50:43 25° E 18:53:56 10° NNE
ATLAS 3B R/B 3.0 18:44:48 10° NW 18:51:28 59° NNE 18:56:56 17° ESE
H-2A R/B 3.0 18:46:52 10° S 18:51:40 47° W 18:56:38 10° NNW
Cosmos 1048 Rocket 4.1 18:47:02 10° NNW 18:52:21 82° WSW 18:57:42 10° SSE
CZ-4 R/B 4.2 18:49:55 10° SW 18:53:09 21° W 18:56:24 10° NW
Cosmos 1536 Rocket 3.5 18:48:56 10° NNW 18:53:24 87° E 18:57:52 10° SSE
USA 238 DEB 4.1 18:48:29 10° NW 18:55:33 67° SW 19:02:31 12° SSE
USA 238 4.1 18:48:35 10° NW 18:55:39 67° SW 19:02:34 12° SSE
In-Cosmos 22 4.3 18:50:38 10° NNW 18:55:55 73° W 19:01:14 10° S
ISS -1.9 18:54:07 10° SSW 18:56:09 17° SSE 18:56:09 17° SSE
Cosmos 2297 Rocket 4.2 18:51:34 10° W 18:56:22 27° NNW 19:01:11 10° NNE
Exosat Rocket 4.4 18:52:13 10° SSE 18:56:38 27° ESE 19:00:49 10° NE
COSMOS 2406 3.7 18:51:51 10° NNW 18:57:22 48° NE 19:01:06 20° ESE
NOSS 3-1 (C) 4.3 18:54:09 10° W 19:00:03 52° NNW 19:07:08 10° ENE
Meteor 1-24 Rocket 4.0 18:55:51 10° N 19:01:07 47° ENE 19:04:56 19° SE
Cosmos 1891 Rocket 4.4 18:55:18 10° S 19:01:26 86° E 19:07:30 10° NNE
Cosmos 1733 4.4 19:01:23 23° E 19:01:41 23° E 19:04:46 10° NE
CZ-2C R/B 2.7 18:57:49 10° NNE 19:03:16 58° E 19:08:47 10° S
Cosmos 1025 Rocket 3.6 18:59:02 10° NNW 19:03:22 62° W 19:07:41 10° S
Cosmos 1269 Rocket 4.2 18:58:49 10° NNW 19:04:06 59° NE 19:07:34 21° SE
ARGOS 4.1 19:00:03 10° S 19:05:14 49° W 19:10:29 10° NNW
SL-14 R/B 3.9 19:02:43 10° N 19:06:22 36° ENE 19:07:47 27° ESE
Cosmos 1707 4.2 19:03:00 10° NNW 19:06:36 38° W 19:10:10 10° SSW
KORONAS-FOTON 3.8 19:06:34 10° NNW 19:10:31 86° ENE 19:13:36 16° SSE
Spot 2 Rocket 4.2 19:10:54 23° ESE 19:13:16 36° ENE 19:17:52 10° N
Cosmos 2151 Rocket 3.5 19:09:07 10° S 19:13:34 77° E 19:18:06 10° NNE
USA 186 3.4 19:14:14 10° SSW 19:17:10 35° W 19:20:13 10° NNW
CREW DRAGON DEMO-1 DEB 3.9 19:14:53 10° WSW 19:17:35 29° SSW 19:18:00 28° S
Ariane Rocket 3.7 19:15:08 10° S 19:20:05 54° W 19:25:06 10° NNW
SJ-6B 3.5 19:16:44 10° S 19:20:22 50° W 19:24:04 10° NNW
Nadezhda 4 Rocket 4.2 19:14:38 10° NNW 19:20:44 69° W 19:26:48 10° S
Cosmos 494 Rocket 4.2 19:16:48 10° NNW 19:22:03 73° WSW 19:26:05 17° SSE
FREGAT/IRIS 3.9 19:20:38 13° SSW 19:22:36 33° W 19:25:02 10° NNW
Cosmos 1844 4.0 19:17:40 10° S 19:22:58 41° ESE 19:28:13 10° NE
MetOp-B 4.3 19:20:19 25° SE 19:23:19 56° ENE 19:28:33 10° N
Cosmos 1766 3.6 19:23:36 35° SE 19:24:33 42° E 19:28:18 10° NNE
Cosmos 2263 Rocket 2.8 19:19:27 10° SW 19:24:57 58° NW 19:30:31 10° NNE
Terra 3.3 19:23:42 19° ENE 19:24:58 21° NE 19:28:28 10° N
NOSS 2-2 (C) 3.1 19:23:27 10° SW 19:27:01 66° SE 19:31:17 10° NE
Lacrosse 4 Rocket 2.4 19:25:14 10° NNW 19:28:59 34° NE 19:30:19 27° ENE
Okean 1-7 Rocket 4.2 19:25:20 10° N 19:29:41 40° ENE 19:30:53 33° ESE
GRACE-FO 1 4.5 19:26:52 10° N 19:30:38 79° E 19:32:24 30° S
GRACE-FO 2 4.5 19:27:14 10° N 19:31:00 79° E 19:32:46 30° S
Cosmos 1844 Rocket 2.7 19:26:11 10° SSW 19:31:35 55° ESE 19:37:03 10° NE
Cosmos 2034 Rocket 4.1 19:25:13 10° S 19:31:37 87° WNW 19:38:00 10° NNE
Cosmos 2298 Rocket 3.9 19:28:40 10° SSW 19:33:59 78° ESE 19:39:20 10° NNE
ATLAS CENTAUR R/B 3.2 19:33:34 10° WNW 19:36:41 23° N 19:39:43 10° NE
SPOT 3 Rocket 3.6 19:32:57 17° S 19:36:57 76° WSW 19:42:08 10° NNW
Cosmos 2251 Rocket 4.2 19:32:21 10° NNW 19:37:27 41° NE 19:39:24 30° E
USA 234 3.7 19:37:13 20° E 19:40:57 35° SE 19:46:51 10° SSW
IGS 5A 3.5 19:44:06 47° ESE 19:44:57 58° ENE 19:49:04 10° N
Resurs 01 Rocket 1.7 19:42:54 29° S 19:45:11 80° WSW 19:49:41 10° NNW
Lacrosse 5 rocket 1.5 19:43:24 10° W 19:47:48 79° N 19:49:28 38° E
Cosmos 1340 Rocket 3.6 19:48:51 35° ENE 19:48:51 35° ENE 19:51:47 10° NNE
Cosmos 1833 Rocket 2.7 19:43:34 10° NNW 19:49:15 71° NE 19:51:25 38° SE
SPOT 5 3.7 19:49:28 34° E 19:50:47 40° ENE 19:55:44 10° N
Cosmos 372 Rocket 4.5 19:48:06 10° SW 19:53:18 62° WNW 19:58:31 10° NNE
Cosmos 1626 Rocket 4.3 19:50:01 10° N 19:54:07 35° ENE 19:54:15 35° ENE
OBJECT-B 2.5 19:52:33 19° SSW 19:54:15 31° W 19:57:13 10° NNW
Cosmos 1655 Rocket 4.2 19:48:17 10° N 19:54:27 55° ENE 19:56:43 37° SE
Cosmos 1626 2.3 19:51:29 10° NNW 19:55:11 70° W 19:56:03 48° SSW
Meteor 1-15 Rocket 4.3 19:50:23 10° SSW 19:56:02 80° WNW 20:01:50 10° NNE
DMSP B5D2-2 4.3 19:51:42 10° NNE 19:56:59 71° WNW 20:02:15 10° SSW
SJ 16-02 4.4 19:58:06 10° WNW 20:00:54 16° NW 20:03:42 10° N
Cosmos 1455 Rocket 3.8 20:02:25 36° ENE 20:02:25 36° ENE 20:05:40 10° NNE
ARIANE 5 R/B 2.5 20:01:03 51° SSE 20:02:09 87° WSW 20:06:32 10° NNW
Cosmos 2150 Rocket 4.2 19:58:22 10° SW 20:03:46 75° WNW 20:09:16 10° NNE
Cosmos 1634 Rocket 3.9 19:59:03 16° S 20:04:10 81° E 20:10:24 10° NNE
CRYOSAT 2 4.2 20:00:06 10° N 20:05:02 74° E 20:06:28 46° SSE
BREEZE-M TANK 4.4 20:00:54 10° SW 20:04:38 20° SSW 20:04:38 20° SSW
Landsat 7 3.7 20:09:07 50° SSE 20:10:22 88° WSW 20:15:11 10° NNW
Cosmos 1461 4.2 20:06:34 10° NW 20:11:03 40° NNE 20:12:25 32° ENE
Cosmos 1125 Rocket 3.5 20:06:13 10° SSW 20:11:33 88° WNW 20:16:55 10° NNE
Cosmos 2285 Rocket 3.9 20:05:17 10° SSW 20:11:36 82° ESE 20:18:00 10° NNE
Okean 1 Rocket 3.4 20:08:19 16° SSW 20:11:47 65° WNW 20:16:17 10° N
ERS-1 Rocket 3.0 20:17:26 57° ESE 20:18:10 64° ENE 20:23:10 10° NNW
Meteor 2-19 Rocket 4.4 20:14:15 10° NNW 20:20:26 90° SW 20:22:38 43° S
H-2A R/B 4.1 20:17:02 10° NNE 20:20:09 43° NE 20:20:09 43° NE
NOSS 2-2 (E) 4.1 20:20:34 10° WSW 20:24:15 54° NNW 20:28:55 10° NE
Cosmos 1805 4.4 20:24:12 20° SW 20:26:30 42° WNW 20:30:16 10° N
Cosmos 2098 Rocket 4.1 20:20:26 10° NNW 20:27:49 83° ENE 20:30:00 47° SSE
Cosmos 1726 4.4 20:31:41 16° NNE 20:31:41 16° NNE 20:32:34 10° NNE
ATLAS 2AS CENTAUR R/B 3.1 20:22:28 10° SSW 20:30:04 51° SE 20:37:33 10° NE
Cosmos 2082 Rocket 2.1 20:25:39 10° NW 20:31:19 82° NE 20:32:16 63° SE
NOSS 2-2 (D) 4.0 20:29:16 10° WSW 20:32:56 55° NNW 20:36:19 16° NE
Cosmos 2180 Rocket 4.4 20:32:04 51° SSE 20:33:39 70° E 20:39:59 10° NNE
CENTAUR R/B 4.1 20:27:20 10° WNW 20:34:31 38° WSW 20:39:10 23° S
CZ-2C R/B 4.3 20:32:17 10° N 20:36:39 54° WNW 20:38:59 26° SW
Cosmos 1892 Rocket 4.4 20:32:42 10° NNW 20:36:52 45° W 20:37:39 40° SW
Cosmos 1733 4.3 20:36:18 37° WSW 20:37:09 43° WNW 20:40:51 10° N
Meteor 1-22 Rocket 4.5 20:34:25 23° SSW 20:38:18 75° WNW 20:44:25 10° NNE
COSMOS 2406 3.8 20:36:19 10° NW 20:41:46 48° WSW 20:43:10 40° SSW
ATLAS 3B R/B 2.9 20:35:39 10° NW 20:42:22 63° SW 20:44:10 48° S
CZ-2C R/B 4.3 20:38:28 10° N 20:43:22 34° WNW 20:48:19 10° WSW
SPOT 1/Viking Rocket 3.8 20:43:21 50° SSW 20:44:25 61° WSW 20:49:34 10° NNW
CARTOSAT-1 3.7 20:46:20 72° NW 20:46:20 72° NW 20:50:21 10° NNW
Cosmos 2279 Rocket 4.0 20:44:35 38° SSW 20:47:11 83° WNW 20:53:31 10° N
NOSS 3-1 (C) 4.5 20:45:46 10° WNW 20:52:07 50° N 20:56:56 22° ENE
Spot 2 Rocket 4.2 20:51:06 41° SW 20:52:10 47° W 20:57:05 10° NNW
Cosmos 1544 Rocket 4.3 20:55:36 46° NNE 20:55:36 46° NNE 20:58:41 10° NNE
SME Rocket 4.4 20:48:51 10° NNE 20:53:55 40° ENE 20:53:55 40° ENE
Cosmos 1953 4.2 20:58:58 23° NNE 20:58:58 23° NNE 21:00:39 10° NNE
Exosat Rocket 4.1 20:52:40 10° SW 20:57:45 54° NW 21:02:47 10° NNE
Cosmos 1470 4.0 21:03:19 39° NNW 21:03:19 39° NNW 21:05:58 10° N
Terra 1.9 21:02:36 75° NNW 21:02:36 75° NNW 21:06:59 10° NNW
Meteor 1-21 Rocket 4.3 20:56:43 10° NNW 21:02:26 74° W 21:03:07 66° SSW
Meteor 2-10 4.1 21:03:51 76° ENE 21:03:51 76° ENE 21:09:00 10° NNE
Cosmos 2278 Rocket 2.9 21:07:57 42° ENE 21:07:57 42° ENE 21:11:47 10° NE
Cosmos 1844 4.4 21:01:28 10° SW 21:07:02 54° NW 21:12:34 10° NNE
Lacrosse 4 Rocket 2.6 21:03:52 10° NW 21:06:37 38° WNW 21:06:37 38° WNW
Cosmos 909 Rocket 4.1 21:02:14 10° NW 21:08:49 61° SW 21:09:31 57° SSW
Cosmos 2263 Rocket 4.4 21:05:36 10° WNW 21:10:03 23° NNW 21:14:32 10° NNE
Cosmos 407 Rocket 3.7 21:08:04 10° NNW 21:12:44 63° NNE 21:12:44 63° NNE
Cosmos 1844 Rocket 3.8 21:10:23 10° WSW 21:15:42 43° NW 21:21:03 10° NNE
ATLAS CENTAUR R/B 3.2 21:13:23 10° NW 21:15:57 24° N 21:15:57 24° N
Cosmos 1602 Rocket 4.4 21:14:00 10° NNW 21:17:25 48° NW 21:17:25 48° NW
Cosmos 2251 Rocket 4.1 21:14:44 10° NW 21:19:53 49° WSW 21:19:53 49° WSW
Cosmos 1140 Rocket 3.8 21:17:05 10° NNW 21:21:35 59° NNE 21:21:35 59° NNE
Resurs 01 Rocket 4.2 21:20:28 11° WSW 21:22:26 14° W 21:24:44 10° NW
USA 234 3.1 21:24:43 73° SSE 21:24:43 73° SSE 21:31:13 10° WSW
Meteor 2-21 4.4 21:18:28 10° NNW 21:24:40 77° W 21:25:06 73° SW
Lacrosse 5 rocket 3.0 21:22:37 10° WNW 21:25:05 32° W 21:25:05 32° W
Cosmos 2266 Rocket 4.4 21:22:47 10° NNW 21:28:38 51° W 21:29:34 47° WSW
SPOT 5 3.7 21:28:43 46° W 21:28:48 46° W 21:33:56 10° NNW
Meteor 1-11 4.2 21:25:48 10° NNW 21:30:57 75° N 21:30:57 75° N
Cosmos 1833 Rocket 4.0 21:27:58 10° NW 21:32:47 29° WSW 21:33:07 29° WSW
CZ-4C R/B 4.2 21:49:07 18° ENE 21:49:07 18° ENE 21:50:53 10° ENE
Nadezhda 2 Rocket 4.4 21:42:20 10° NNW 21:48:21 75° W 21:48:21 75° W
Cosmos 1461 4.4 21:45:47 10° NW 21:48:46 38° WNW 21:48:46 38° WNW
USA 229 DEB 4.2 21:43:52 10° WNW 21:50:47 57° NNE 21:53:20 39° ENE
USA 229 4.2 21:43:58 10° WNW 21:50:52 57° NNE 21:53:26 39° ENE
NOSS 3-4 (A) 3.5 21:57:18 77° WNW 21:57:31 78° NNW 22:04:12 10° NE
NOSS 3-4 (C) 3.5 21:57:30 78° NW 21:57:37 79° NNW 22:04:17 10° NE
Meteor 1-16 Rocket 4.5 22:00:33 69° NW 22:00:33 69° NW 22:06:13 10° NNE
NOSS 3-1 (A) 4.3 21:56:12 10° WNW 22:02:49 57° NNE 22:06:02 35° E
Cosmos 1553 Rocket 4.2 22:10:44 63° NE 22:10:44 63° NE 22:16:19 10° NNE
Cosmos 1943 Rocket 3.9 22:16:55 22° ENE 22:16:55 22° ENE 22:19:05 10° NE
Cosmos 2082 Rocket 3.8 22:10:24 10° NW 22:14:06 24° W 22:14:06 24° W
MOS 1-B Rocket 4.4 22:09:32 10° NNE 22:16:13 80° WNW 22:16:59 72° SW
ATLAS 2AS CENTAUR R/B 3.1 22:12:59 10° WSW 22:20:58 73° NNW 22:28:44 10° NE
Cosmos 1745 Rocket 4.1 22:16:28 10° NNW 22:21:53 70° NNW 22:21:53 70° NNW
Cosmos 2297 Rocket 4.1 22:23:49 10° NNW 22:28:27 25° NNE 22:31:23 17° ENE
ALOS 2 4.4 22:31:49 30° NNW 22:31:49 30° NNW 22:34:05 10° NNW
ATLAS 3B R/B 4.4 22:27:23 10° WNW 22:31:24 19° WSW 22:31:24 19° WSW
COSMOS 2455 3.4 22:39:35 51° NE 22:39:35 51° NE 22:44:02 10° NE
Terra 4.1 22:41:29 16° WNW 22:41:29 16° WNW 22:43:40 10° NW
Cosmos 2369 Rocket 3.8 22:44:15 25° ENE 22:44:15 25° ENE 22:46:52 10° NE
NOSS 3-1 (C) 3.8 22:36:49 10° NW 22:43:50 82° NE 22:44:17 78° E
Cosmos 2278 Rocket 3.3 22:49:46 38° WNW 22:50:36 40° NW 22:55:57 10° NNE
Cosmos 1709 Rocket 4.2 22:51:17 10° NNW 22:56:28 64° NNW 22:56:28 64° NNW
SL-16 R/B 4.1 22:58:39 24° ENE 23:00:33 28° NE 23:05:37 10° N
S3M 4.2 23:04:14 64° NNW 23:04:14 64° NNW 23:09:34 10° N
USA 234 4.0 23:01:18 10° E 23:12:14 23° W 23:14:26 10° W
Cosmos 2315 Rocket 4.2 23:26:34 68° NNE 23:26:34 68° NNE 23:32:01 10° NNE
Cosmos 2227 Rocket 3.6 23:21:08 10° NNW 23:26:18 35° NE 23:27:49 30° ENE
Cosmos 2184 Rocket 4.2 23:27:02 10° N 23:32:22 66° NNE 23:32:22 66° NNE
CZ-4C R/B 2.7 23:34:18 60° NNE 23:34:18 60° NNE 23:40:02 10° NE
Cosmos 2219 4.0 23:36:10 10° NNW 23:41:41 47° NE 23:41:52 47° NE
Meteor 2-3 Rocket 4.3 23:36:12 10° NNW 23:40:32 53° N 23:40:32 53° N
USA 229 DEB 4.1 23:35:01 10° NW 23:40:43 58° WNW 23:40:43 58° WNW
USA 229 4.0 23:35:06 10° NW 23:40:49 59° WNW 23:40:49 59° WNW
NOSS 3-4 (A) 4.4 23:44:39 18° WNW 23:49:12 47° N 23:55:52 10° ENE
NOSS 3-4 (C) 4.4 23:44:52 18° WNW 23:49:18 47° N 23:55:58 10° ENE
